Miscellaneous Local Product
Issued by NWS Hastings, NE

Home | Current Version | Previous Version | Graphics & Text | Print | Product List | Glossary On
Versions: 1 2 3 4 5 6 7 8 9 10 11 12 13 14 15 16 17 18 19 20 21 22 23 24 25 26 27 28 29 30 31 32 33 34 35 36 37 38 39 40 41 42 43 44 45 46 47 48 49 50
000
AXUS43 KGID 290402
MISGRI

GID CWA HOURLY WEATHER ROUNDUP
NATIONAL WEATHER SERVICE HASTINGS NE
1100 PM CDT TUE MAR 28 2017

NOTE: "FAIR" INDICATES FEW OR NO CLOUDS BELOW 12,000 FEET WITH NO
SIGNIFICANT WEATHER AND/OR OBSTRUCTIONS TO VISIBILITY.

...SOUTH CENTRAL NEBRASKA...

CITY           SKY/WX    TMP DP  RH WIND       PRES   REMARKS
GRAND ISLAND   LGT RAIN  43  43 100 NE12      30.06F FOG
HASTINGS       LGT RAIN  43  41  93 NE14      30.05F FOG
KEARNEY        CLOUDY    43  39  87 NE10      30.06R
ORD            CLOUDY    45  40  82 E5        30.07S
YORK           LGT RAIN  45  45 100 NE9       30.07F
AURORA         RAIN      43  43  99 NE10      30.07F
LEXINGTON      LGT RAIN  43  41  92 NE7       30.06R
HOLDREGE       LGT RAIN  43  41  94 NE13      30.05R
HEBRON         RAIN      46  44  93 NE9       30.05S

...NEBRASKA PANHANDLE...

CITY           SKY/WX    TMP DP  RH WIND       PRES   REMARKS
CHADRON        LGT RAIN  42  38  85 S6        30.15R
ALLIANCE       LGT RAIN  39  37  92 E7        30.11S WCI  34
SCOTTSBLUFF    LGT RAIN  40  37  89 E8        30.12S WCI  34
SIDNEY         LGT RAIN  39  37  92 NE7       30.08S WCI  34

...WESTERN AND NORTH CENTRAL NEBRASKA...

CITY           SKY/WX    TMP DP  RH WIND       PRES   REMARKS
VALENTINE      CLOUDY    42  39  89 NE7       30.13S
AINSWORTH      LGT RAIN  42  42 100 NE8       30.12S
ONEILL         CLOUDY    48  42  80 N6        30.10S
BROKEN BOW     LGT RAIN  45  40  82 NE6       30.06F
IMPERIAL       LGT RAIN  43  41  93 NE9       30.06R FOG
NORTH PLATTE   LGT RAIN  43  41  93 NE7       30.07S FOG
MCCOOK         CLOUDY    43  42  97 NE14      30.03R FOG

...EASTERN NEBRASKA...

CITY           SKY/WX    TMP DP  RH WIND       PRES   REMARKS
NORFOLK        CLOUDY    46  41  82 CALM      30.10R
SO SIOUX CITY  CLOUDY    48  42  80 E5        30.12F
TEKAMAH        CLOUDY    48  42  80 NE7       30.10F
COLUMBUS       CLOUDY    45  39  81 CALM      30.11R
ALBION         CLOUDY    46  41  84 NE3       30.10F
OMAHA EPPLEY   CLOUDY    49  41  74 NE15      30.08S
OFFUTT AFB     CLOUDY    48  42  78 NE10      30.08R
MILLARD        CLOUDY    51  44  75 NE5       30.08S
LINCOLN        CLOUDY    47  43  86 NE9       30.09R
NEBRASKA CITY  CLOUDY    49  42  77 NE10      30.04F
BEATRICE       DRIZZLE   47  44  90 NE5       30.05R
FALLS CITY     CLOUDY    51  48  89 E9        30.04S

...NORTHERN KANSAS...

CITY           SKY/WX    TMP DP  RH WIND       PRES   REMARKS
GOODLAND       LGT RAIN  39  39 100 NE14      29.98R FOG     WCI  31
HILL CITY      LGT RAIN  45  44  97 NE15      30.01R FOG
NORTON         CLOUDY    43  39  87 NE20G25   30.01  FOG
PHILLIPSBURG   CLOUDY    45  45 100 NE13      30.02R
HAYS             N/A     46  45  96 NE21      29.94S
RUSSELL        CLOUDY    47  46  97 NE17      29.94R
CONCORDIA      LGT RAIN  46  46 100 E15G22    29.97F FOG
SALINA         HVY RAIN  51  49  92 NE13      29.98F FOG
TOPEKA         CLOUDY    53  51  93 NE15      29.96F



USA.gov is the U.S. government's official web portal to all federal, state and local government web resources and services.